Location: Sunny Point
(33.0946°N, 85.0574°W)
Time: 10:18:56
(UTC+00:00)

UNISAT 6 - Visible Passes

Search period start: 24 July 2024 00:00
Search period end: 03 August 2024 00:00
Orbit: 592 x 665 km, 97.7° (Epoch: 23 July)

Date Brightness Start Highest point End Pass type
(mag) Time Alt. Az. Time Alt. Az. Time Alt. Az.
24 Jul ? 09:28:14 10° SSE 09:32:47 77° ENE 09:37:19 10° N visible
25 Jul ? 08:16:07 10° ENE 08:16:55 10° ENE 08:17:44 10° NE visible
25 Jul ? 09:48:09 10° S 09:52:39 62° W 09:57:07 10° NNW visible
26 Jul ? 08:33:34 10° ESE 08:36:34 18° ENE 08:39:33 10° NNE visible
26 Jul ? 10:08:23 10° SSW 10:12:32 35° W 10:16:41 10° NNW visible
27 Jul ? 08:52:22 10° SE 08:56:15 29° ENE 09:00:06 10° NNE visible
28 Jul ? 09:11:37 10° SSE 09:15:58 48° ENE 09:20:18 10° N visible
29 Jul ? 09:31:13 10° SSE 09:35:45 84° ENE 09:40:13 10° N visible
30 Jul ? 08:18:23 10° E 08:19:46 11° ENE 08:21:08 10° NE visible
30 Jul ? 09:51:06 10° S 09:55:32 56° W 09:59:56 10° NNW visible
31 Jul ? 08:36:13 10° ESE 08:39:21 19° ENE 08:42:26 10° NNE visible
31 Jul ? 10:11:20 10° SSW 10:15:21 32° W 10:19:22 10° NW visible
01 Aug ? 08:55:01 10° SE 08:58:58 31° ENE 09:02:51 10° N visible
02 Aug ? 09:14:16 10° SSE 09:18:38 52° ENE 09:22:56 10° N visible
